User: anonymous   Login
Location: Arrodets-la-Barthe
(43.0306°N, 0.2829°E)
Time: 14:31:10
(UTC+00:00)
Language:

Cosmos 2333 - Orbit

View from above orbital plane
View from above orbital plane
View from above satellite
View from above satellite

Ground track
Ground track

The orbit data is extracted from the following two-line orbital elements,

1 24297U 96051A   22023.82444054 -.00000186  00000-0 -73227-4 0  9997
2 24297  70.9065 114.6028 0024990 209.1752 150.7974 14.13376777309433
Epoch (UTC): 23 January 2022 19:47:11
Eccentricity: 0.0024990
inclination: 70.9065°
perigee height: 830 km
apogee height: 866 km
right ascension of ascending node: 114.6028°
argument of perigee: 209.1752°
revolutions per day: 14.13376777
mean anomaly at epoch: 150.7974°
orbit number at epoch: 30943

The dashed part of the orbit path shows where the satellite is in the earth's shadow,  

DLR